ギブス彗星

P/2007 K2 ( Gibbs )

English version
Home page
Updated on September 23, 2007

---------------------------------------------------------------------

・ プロフィール

発見日 2007年5月21日
発見光度 19.0等
発見者 A. R. Gibbs (Catalina Sky Survey)

・ 軌道要素

The following orbital elements are taken from MPC 60281:

Epoch 2007 May 20.0 TT = JDT 2454240.5
T 2007 June 8.4609 TT                                   MPC
q   2.267710             (2000.0)            P               Q
n   0.0517924      Peri.  345.6864      -0.9966113      -0.0790574
a   7.127848       Node   189.8634      +0.0822556      -0.9580887
e   0.681852       Incl.    7.6196      -0.0000676      -0.2753470
P  19.0
From 46 observations 2007 May 11-July 11, mean residual 0".7.

・ 光度変化

        m1 = 13.5 + 5 logΔ + 10.0 log r

---------------------------------------------------------------------

軌道要素はMPCのEphemerides and Orbital Elementsに掲載されたものです。
光度グラフはComet for Windowsで作成したものです。

---------------------------------------------------------------------

Copyright(C) Seiichi Yoshida (comet@aerith.net). All rights reserved.